Flag for U.S.A. Weather past 2 weeks in Angels Camp, California, U.S.A.

Now
45 °F

Sunny.


Feels Like: 41 °F
Forecast: 38 / 68 °F
Wind: 7 mph from Northwest

Location: Modesto City-County-Sham Field

Current Time: Jan 31, 2015 at 8:31:42 AM

Latest Report: Jan 31, 2015 at 7:53 AM


Visibility: 10 mi

Pressure: 29.96 "Hg

Humidity: 76%

Dew point: 38 °F

Location of Angels CampLocation

Historic Weather in Angels Camp — Graph

°F

Angels Camp temperature yesterday

Maximum temperature yesterday: 66 °F (at 2:53 PM)
Minimum temperature yesterday: 40 °F (at 4:53 AM)
Average temperature yesterday: 51 °F

Past Weeks' High & Low Weather Summary

 TemperatureHumidityPressure
High66 °F (Jan 30, 2:53 PM)100% (Jan 23, 8:53 AM)30.40 "Hg (Jan 23, 8:53 AM)
Low34 °F (Jan 23, 3:53 AM)47% (Jan 30, 2:53 PM)29.86 "Hg (Jan 30, 4:53 PM)
Average49 °F86%30.19 "Hg
* Reported Jan 16 6:53 AM — Jan 31 6:53 AM, Angels Camp, Weather by CustomWeather, © 2014

Note: Actual official high and low records may vary slightly from our data, if they occured in-between our weather recording intervals... More about our weather records

Advertising

Angels Camp weather history for previous 24 hours

 ConditionsComfort  
Time TempWeatherWind HumidityBarometerVisibility
6:53 AM
Jan 31
42 °FClear.3 mph89%29.93 "Hg7 mi
5:53 AM44 °FClear.5 mph89%29.92 "Hg8 mi
4:53 AM44 °FClear.5 mph93%29.90 "Hg8 mi
3:53 AM40 °FFog.No wind93%29.90 "Hg1 mi
2:53 AM43 °FFog.No wind97%29.90 "Hg1 mi
1:53 AM44 °FFog.No wind93%29.90 "Hg2 mi
12:53 AM44 °FFog.3 mph93%29.89 "Hg2 mi
11:53 PM
Jan 30
46 °FFog.No wind89%29.90 "Hg4 mi
10:53 PM48 °FFog.No wind89%29.90 "Hg5 mi
9:53 PM50 °FClear.No wind83%29.90 "Hg6 mi
8:53 PM50 °FClear.6 mph86%29.89 "Hg7 mi
7:53 PM54 °FClear.No wind72%29.89 "Hg10 mi
6:53 PM60 °FClear.5 mph60%29.90 "Hg10 mi
5:53 PM61 °FClear.6 mph56%29.88 "Hg10 mi
4:53 PM64 °FSunny.9 mph50%29.86 "Hg10 mi
3:53 PM66 °FSunny.8 mph47%29.87 "Hg10 mi
2:53 PM66 °FSunny.13 mph47%29.88 "Hg10 mi
1:53 PM64 °FSunny.9 mph52%29.90 "Hg10 mi
12:53 PM64 °FSunny.6 mph54%29.93 "Hg10 mi
11:53 AM60 °FSunny.6 mph60%29.96 "Hg10 mi
10:53 AM54 °FSunny.No wind74%30.01 "Hg6 mi
9:53 AM46 °FFog.3 mph96%30.01 "Hg2 mi
8:53 AM42 °FFog.5 mph96%30.01 "Hg1 mi
Weather by CustomWeather, © 2014

See weather overviewHow to use our weather pages